Terug naar catalogus

STARLINK-34619

ActiefCommunicatieVLEO
NORAD 64737·PAYLOAD·🇺🇸 United States

Gelanceerd Jul 2, 2025 vanaf Cape Canaveral Space Force Station

Loading…

Volgende Passages (komende 24 uur)

TLE

VersSource: CelesTrak SupGP

Epoch: Sep 14, 2026, 21:21 UTC

1 64737C 25144P   26257.89006944  .00027182  00000+0  80335-3 0  2573
2 64737  53.1598  21.6496 0001274  77.9507  57.8739 15.34367058    19

Volg STARLINK-34619 in realtime met AllMySat

Download on the App Store